Location: Althorst
(53.6379°N, 10.7715°E)
Time: 14:58:13
(UTC+00:00)

COSMOS 2455 - Pass Details

Date: 10 December 2019
Orbit: 903 x 907 km, 67.1° (Epoch: 26 January)

Event Time Altitude Azimuth Distance (km) Brightness Sun altitude
Rises 17:47:07 0° 281° (WNW) 3,536 7.1 -23.7°
Reaches altitude 10° 17:50:09 10° 295° (WNW) 2,596 6.0 -24.2°
Maximum altitude 17:54:58 24° 349° (NNW) 1,794 4.4 -24.9°
Enters shadow 17:56:41 21° 13° (NNE) 1,917 4.3 -25.1°
